HVN423 RKPK-VVTS

Flight info

Callsign HVN423
Flight time 4h 20m
Altitude 38000
Route BURIM3 ENGOT Y572 CJU Z82 PANSI Y711 MUGUS Y742 SALMI Q11 TINHO B591 HCN N892 MIGUG/K0906F380 N892 MESOX Q15 CRA W15 VETOM VETOM5G
Aircraft A359/H-SDE2E3GHIJ1J3J4J5LM1ORWXY/LB1D1

Departure

Time 2026-05-06 10:26
Airport Gimhae International Airport (RKPK)

Arrival

Time 2026-05-06 14:46
Airport Tan Son Nhat International Airport (VVTS)
Time Latitude Longitude Altitude Speed Heading
2026-05-06 10:14 35.17320 128.94553 29 ft 0 kts 114°
2026-05-06 10:15 35.17321 128.94551 29 ft 2 kts 115°
2026-05-06 10:15 35.17331 128.94523 29 ft 3 kts 115°
2026-05-06 10:15 35.17339 128.94496 26 ft 4 kts 89°
2026-05-06 10:15 35.17332 128.94472 27 ft 4 kts 23°
2026-05-06 10:16 35.17306 128.94466 27 ft 4 kts 356°
2026-05-06 10:16 35.17282 128.94469 29 ft 1 kts 354°
2026-05-06 10:16 35.17281 128.94469 29 ft 0 kts 354°
2026-05-06 10:19 35.17286 128.94469 27 ft 2 kts 354°
2026-05-06 10:19 35.17314 128.94465 27 ft 7 kts 354°
2026-05-06 10:19 35.17377 128.94457 29 ft 10 kts 354°
2026-05-06 10:19 35.17459 128.94447 29 ft 13 kts 354°
2026-05-06 10:20 35.17548 128.94436 29 ft 14 kts 354°
2026-05-06 10:20 35.17636 128.94425 29 ft 13 kts 355°
2026-05-06 10:20 35.17722 128.94378 29 ft 15 kts 310°
2026-05-06 10:20 35.17773 128.94260 29 ft 17 kts 298°
2026-05-06 10:21 35.17871 128.94206 29 ft 14 kts 354°
2026-05-06 10:21 35.17963 128.94195 29 ft 12 kts 354°
2026-05-06 10:21 35.18056 128.94183 29 ft 15 kts 354°
2026-05-06 10:21 35.18166 128.94169 29 ft 17 kts 354°
2026-05-06 10:22 35.18293 128.94153 29 ft 19 kts 354°
2026-05-06 10:22 35.18410 128.94138 29 ft 18 kts 354°
2026-05-06 10:22 35.18516 128.94125 29 ft 13 kts 354°
2026-05-06 10:22 35.18614 128.94112 29 ft 16 kts 354°
2026-05-06 10:23 35.18730 128.94097 29 ft 18 kts 354°
2026-05-06 10:23 35.18861 128.94080 30 ft 20 kts 354°
2026-05-06 10:23 35.19006 128.94062 30 ft 22 kts 354°
2026-05-06 10:23 35.19130 128.94047 29 ft 15 kts 354°
2026-05-06 10:24 35.19246 128.94032 29 ft 18 kts 354°
2026-05-06 10:24 35.19358 128.94017 29 ft 17 kts 353°
2026-05-06 10:24 35.19402 128.93917 29 ft 10 kts 263°
2026-05-06 10:24 35.19401 128.93910 29 ft 0 kts 263°
2026-05-06 10:25 35.19399 128.93892 29 ft 8 kts 263°
2026-05-06 10:25 35.19391 128.93789 29 ft 8 kts 263°
2026-05-06 10:25 35.19356 128.93751 30 ft 6 kts 190°
2026-05-06 10:25 35.19333 128.93753 30 ft 0 kts 174°
2026-05-06 10:26 35.19152 128.93777 31 ft 61 kts 174°
2026-05-06 10:26 35.18502 128.93860 27 ft 125 kts 174°
2026-05-06 10:26 35.17463 128.93991 182 ft 164 kts 174°
2026-05-06 10:26 35.16356 128.94125 964 ft 156 kts 176°
2026-05-06 10:27 35.15288 128.94185 1790 ft 153 kts 181°
2026-05-06 10:27 35.14216 128.94208 2408 ft 155 kts 181°
2026-05-06 10:27 35.13123 128.94235 2925 ft 160 kts 180°
2026-05-06 10:27 35.11973 128.94267 3318 ft 174 kts 180°
2026-05-06 10:28 35.10687 128.94305 3574 ft 196 kts 180°
2026-05-06 10:28 35.09229 128.94349 3838 ft 222 kts 179°
2026-05-06 10:28 35.07620 128.94402 4295 ft 238 kts 180°
2026-05-06 10:28 35.05932 128.94458 4827 ft 248 kts 181°
2026-05-06 10:29 35.04195 128.94516 5016 ft 250 kts 180°
2026-05-06 10:29 35.02451 128.94577 5046 ft 251 kts 180°
2026-05-06 10:29 35.00708 128.94638 5045 ft 251 kts 180°
2026-05-06 10:29 34.98961 128.94703 5055 ft 256 kts 179°
2026-05-06 10:30 34.97127 128.94785 5051 ft 268 kts 179°
2026-05-06 10:30 34.95257 128.94875 5159 ft 271 kts 180°
2026-05-06 10:30 34.93359 128.94966 5723 ft 273 kts 180°
2026-05-06 10:30 34.91461 128.94921 6626 ft 272 kts 191°
2026-05-06 10:31 34.89763 128.94001 7464 ft 269 kts 222°
2026-05-06 10:31 34.88724 128.92140 8312 ft 270 kts 251°
2026-05-06 10:31 34.88246 128.89912 9151 ft 274 kts 257°
2026-05-06 10:31 34.87856 128.87616 9995 ft 278 kts 258°
2026-05-06 10:32 34.87455 128.85271 10569 ft 291 kts 258°
2026-05-06 10:32 34.87023 128.82815 10923 ft 310 kts 257°
2026-05-06 10:32 34.86548 128.80172 11266 ft 329 kts 257°
2026-05-06 10:32 34.86037 128.77355 11697 ft 343 kts 257°
2026-05-06 10:33 34.85522 128.74529 12295 ft 350 kts 257°
2026-05-06 10:33 34.84990 128.71622 12953 ft 354 kts 257°
2026-05-06 10:33 34.84450 128.68677 13650 ft 358 kts 258°
2026-05-06 10:33 34.83903 128.65702 14269 ft 362 kts 258°
2026-05-06 10:34 34.83353 128.62710 14907 ft 364 kts 258°
2026-05-06 10:34 34.82795 128.59689 15528 ft 367 kts 258°
2026-05-06 10:34 34.82234 128.56652 16135 ft 370 kts 258°
2026-05-06 10:34 34.81650 128.53590 16704 ft 373 kts 257°
2026-05-06 10:35 34.80803 128.50585 17328 ft 378 kts 247°
2026-05-06 10:35 34.79482 128.47798 17943 ft 384 kts 236°
2026-05-06 10:35 34.77850 128.45215 18532 ft 388 kts 233°
2026-05-06 10:35 34.76085 128.42695 19021 ft 394 kts 231°
2026-05-06 10:36 34.74253 128.40198 19532 ft 398 kts 231°
2026-05-06 10:36 34.72385 128.37683 20066 ft 402 kts 231°
2026-05-06 10:36 34.70507 128.35148 20603 ft 405 kts 231°
2026-05-06 10:36 34.68625 128.32583 21126 ft 409 kts 231°
2026-05-06 10:37 34.67346 128.30827 21483 ft 411 kts 231°
2026-05-06 10:37 34.65445 128.28205 22002 ft 415 kts 232°
2026-05-06 10:37 34.63532 128.25558 22498 ft 419 kts 232°
2026-05-06 10:37 34.61599 128.22877 22970 ft 424 kts 232°
2026-05-06 10:38 34.59009 128.19288 23652 ft 429 kts 232°
2026-05-06 10:38 34.57675 128.17443 23965 ft 431 kts 232°
2026-05-06 10:38 34.55719 128.14740 24448 ft 433 kts 232°
2026-05-06 10:38 34.53721 128.11982 24906 ft 437 kts 232°
2026-05-06 10:39 34.51707 128.09203 25357 ft 441 kts 232°
2026-05-06 10:39 34.49674 128.06402 25820 ft 444 kts 232°
2026-05-06 10:39 34.47625 128.03580 26288 ft 448 kts 232°
2026-05-06 10:39 34.45561 128.00740 26732 ft 451 kts 232°
2026-05-06 10:40 34.43480 127.97880 27176 ft 454 kts 232°
2026-05-06 10:40 34.41381 127.94996 27620 ft 458 kts 232°
2026-05-06 10:40 34.39266 127.92094 28103 ft 460 kts 232°
2026-05-06 10:40 34.37144 127.89184 28530 ft 463 kts 233°
2026-05-06 10:41 34.34998 127.86242 28916 ft 467 kts 233°
2026-05-06 10:41 34.32843 127.83292 29312 ft 471 kts 233°
2026-05-06 10:41 34.30659 127.80305 29719 ft 474 kts 233°
2026-05-06 10:41 34.28467 127.77308 30115 ft 478 kts 233°
2026-05-06 10:42 34.26263 127.74299 30460 ft 481 kts 233°
2026-05-06 10:42 34.24037 127.71266 30787 ft 484 kts 233°
2026-05-06 10:42 34.21796 127.68214 31126 ft 486 kts 233°
2026-05-06 10:42 34.19547 127.65152 31445 ft 488 kts 233°
2026-05-06 10:43 34.17290 127.62082 31738 ft 491 kts 233°
2026-05-06 10:43 34.15016 127.58990 32054 ft 493 kts 233°
2026-05-06 10:43 34.12732 127.55888 32346 ft 496 kts 233°
2026-05-06 10:44 34.08122 127.49637 32923 ft 501 kts 233°
2026-05-06 10:44 34.05802 127.46494 33145 ft 503 kts 233°
2026-05-06 10:44 34.03471 127.43342 33473 ft 504 kts 233°
2026-05-06 10:44 34.01142 127.40195 33864 ft 503 kts 233°
2026-05-06 10:45 33.98842 127.37091 34208 ft 502 kts 233°
2026-05-06 10:45 33.96489 127.33919 34563 ft 501 kts 233°
2026-05-06 10:45 33.94199 127.30839 34911 ft 499 kts 232°
2026-05-06 10:45 33.91886 127.27728 35267 ft 497 kts 232°
2026-05-06 10:46 33.89587 127.24632 35614 ft 496 kts 232°
2026-05-06 10:46 33.87291 127.21541 35954 ft 494 kts 232°
2026-05-06 10:46 33.85006 127.18468 36294 ft 492 kts 232°
2026-05-06 10:46 33.82726 127.15404 36603 ft 491 kts 232°
2026-05-06 10:47 33.80446 127.12344 36874 ft 490 kts 232°
2026-05-06 10:47 33.78176 127.09299 37152 ft 489 kts 232°
2026-05-06 10:47 33.75902 127.06256 37435 ft 488 kts 232°
2026-05-06 10:47 33.73628 127.03220 37722 ft 487 kts 232°
2026-05-06 10:48 33.71373 127.00207 37986 ft 486 kts 232°
2026-05-06 10:48 33.66843 126.94156 38067 ft 485 kts 232°
2026-05-06 10:49 33.62023 126.88442 38070 ft 488 kts 227°
2026-05-06 10:49 33.57044 126.82894 38067 ft 489 kts 227°
2026-05-06 10:50 33.52041 126.77381 38062 ft 489 kts 227°
2026-05-06 10:50 33.47032 126.71863 38064 ft 489 kts 227°
2026-05-06 10:51 33.42034 126.66355 38063 ft 489 kts 227°
2026-05-06 10:51 33.37019 126.60837 38064 ft 489 kts 227°
2026-05-06 10:52 33.32015 126.55327 38056 ft 489 kts 227°
2026-05-06 10:52 33.27009 126.49814 38054 ft 490 kts 227°
2026-05-06 10:53 33.21988 126.44301 38063 ft 490 kts 227°
2026-05-06 10:53 33.16972 126.38804 38070 ft 490 kts 227°
2026-05-06 10:54 33.11953 126.33312 38066 ft 490 kts 227°
2026-05-06 10:54 33.06921 126.27816 38076 ft 490 kts 226°
2026-05-06 10:55 33.01771 126.22480 38071 ft 494 kts 220°
2026-05-06 10:55 32.95675 126.18615 38073 ft 501 kts 206°
2026-05-06 10:56 32.89171 126.15710 38079 ft 503 kts 204°
2026-05-06 10:56 32.82513 126.12955 38071 ft 504 kts 203°
2026-05-06 10:57 32.75893 126.10186 38071 ft 505 kts 204°
2026-05-06 10:57 32.69284 126.07378 38073 ft 505 kts 204°
2026-05-06 10:58 32.62670 126.04555 38072 ft 505 kts 204°
2026-05-06 10:58 32.56097 126.01753 38073 ft 506 kts 204°
2026-05-06 10:59 32.49476 125.98937 38072 ft 506 kts 204°
2026-05-06 10:59 32.42855 125.96125 38068 ft 506 kts 203°
2026-05-06 11:00 32.36215 125.93315 38071 ft 507 kts 203°
2026-05-06 11:00 32.29569 125.90508 38071 ft 507 kts 203°
2026-05-06 11:01 32.22925 125.87705 38069 ft 507 kts 203°
2026-05-06 11:01 32.16277 125.84905 38067 ft 508 kts 203°
2026-05-06 11:02 32.09624 125.82106 38067 ft 508 kts 203°
2026-05-06 11:02 32.02963 125.79308 38067 ft 508 kts 203°
2026-05-06 11:03 31.96304 125.76523 38068 ft 508 kts 203°
2026-05-06 11:03 31.89654 125.73724 38064 ft 508 kts 203°
2026-05-06 11:04 31.83001 125.70924 38060 ft 508 kts 203°
2026-05-06 11:04 31.76348 125.68133 38061 ft 508 kts 203°
2026-05-06 11:05 31.69689 125.65348 38053 ft 508 kts 203°
2026-05-06 11:05 31.63029 125.62562 38061 ft 508 kts 203°
2026-05-06 11:06 31.56365 125.59774 38061 ft 509 kts 203°
2026-05-06 11:06 31.49692 125.56994 38052 ft 509 kts 203°
2026-05-06 11:07 31.43026 125.54201 38058 ft 509 kts 203°
2026-05-06 11:07 31.36368 125.51408 38056 ft 509 kts 203°
2026-05-06 11:08 31.29699 125.48620 38049 ft 508 kts 203°
2026-05-06 11:08 31.23040 125.45844 38058 ft 508 kts 203°
2026-05-06 11:09 31.16372 125.43068 38055 ft 509 kts 203°
2026-05-06 11:09 31.09748 125.40315 38056 ft 509 kts 203°
2026-05-06 11:10 31.03076 125.37546 38054 ft 509 kts 203°
2026-05-06 11:10 30.96362 125.34764 38053 ft 509 kts 203°
2026-05-06 11:11 30.89741 125.32024 38050 ft 509 kts 203°
2026-05-06 11:11 30.83071 125.29268 38049 ft 509 kts 203°
2026-05-06 11:12 30.76398 125.26515 38051 ft 509 kts 203°
2026-05-06 11:12 30.69725 125.23766 38047 ft 509 kts 203°
2026-05-06 11:13 30.63052 125.21022 38051 ft 508 kts 203°
2026-05-06 11:13 30.56390 125.18285 38048 ft 509 kts 203°
2026-05-06 11:14 30.49709 125.15545 38048 ft 509 kts 203°
2026-05-06 11:14 30.43041 125.12810 38042 ft 509 kts 203°
2026-05-06 11:15 30.36364 125.10078 38042 ft 509 kts 203°
2026-05-06 11:15 30.29677 125.07347 38042 ft 509 kts 203°
2026-05-06 11:16 30.22994 125.04621 38049 ft 510 kts 203°
2026-05-06 11:16 30.16301 125.01894 38053 ft 510 kts 203°
2026-05-06 11:17 30.09608 124.99171 38038 ft 510 kts 203°
2026-05-06 11:17 30.02926 124.96457 38042 ft 509 kts 203°
2026-05-06 11:18 29.96249 124.93729 38038 ft 508 kts 204°
2026-05-06 11:18 29.89624 124.90885 38040 ft 508 kts 205°
2026-05-06 11:19 29.83009 124.88025 38040 ft 508 kts 205°
2026-05-06 11:19 29.76377 124.85183 38041 ft 509 kts 204°
2026-05-06 11:20 29.69783 124.82377 38035 ft 509 kts 204°
2026-05-06 11:20 29.63150 124.79561 38032 ft 509 kts 205°
2026-05-06 11:21 29.56508 124.76745 38036 ft 508 kts 205°
2026-05-06 11:21 29.49869 124.73934 38037 ft 509 kts 205°
2026-05-06 11:22 29.43231 124.71126 38025 ft 507 kts 205°
2026-05-06 11:22 29.36617 124.68333 38031 ft 507 kts 205°
2026-05-06 11:23 29.29987 124.65536 38029 ft 507 kts 205°
2026-05-06 11:23 29.23362 124.62745 38034 ft 507 kts 205°
2026-05-06 11:24 29.16736 124.59958 38022 ft 508 kts 205°
2026-05-06 11:24 29.11218 124.57640 38028 ft 508 kts 205°
2026-05-06 11:25 29.04585 124.54857 38029 ft 508 kts 205°
2026-05-06 11:25 28.97949 124.52057 38026 ft 507 kts 207°
2026-05-06 11:26 28.91860 124.48213 38026 ft 497 kts 219°
2026-05-06 11:26 28.86174 124.43743 38027 ft 495 kts 220°
2026-05-06 11:27 28.80567 124.39194 38021 ft 495 kts 221°
2026-05-06 11:27 28.74953 124.34653 38026 ft 495 kts 220°
2026-05-06 11:28 28.69317 124.30130 38022 ft 496 kts 220°
2026-05-06 11:28 28.63669 124.25614 38023 ft 496 kts 220°
2026-05-06 11:29 28.58028 124.21111 38014 ft 496 kts 220°
2026-05-06 11:29 28.52386 124.16612 38012 ft 495 kts 220°
2026-05-06 11:30 28.46745 124.12120 38025 ft 495 kts 220°
2026-05-06 11:30 28.41109 124.07636 38020 ft 495 kts 220°
2026-05-06 11:31 28.35472 124.03159 38023 ft 494 kts 220°
2026-05-06 11:31 28.29539 123.99136 38027 ft 502 kts 210°
2026-05-06 11:32 28.23176 123.95939 38018 ft 504 kts 208°
2026-05-06 11:32 28.16665 123.92848 38017 ft 504 kts 208°
2026-05-06 11:33 28.10251 123.89816 38016 ft 503 kts 208°
2026-05-06 11:33 28.03800 123.86747 38018 ft 502 kts 208°
2026-05-06 11:34 27.97358 123.83674 38013 ft 502 kts 208°
2026-05-06 11:34 27.90916 123.80603 38018 ft 502 kts 208°
2026-05-06 11:35 27.84476 123.77538 38012 ft 502 kts 208°
2026-05-06 11:35 27.78033 123.74476 38012 ft 502 kts 208°
2026-05-06 11:36 27.71585 123.71416 38016 ft 502 kts 208°
2026-05-06 11:36 27.65140 123.68361 38008 ft 502 kts 208°
2026-05-06 11:37 27.59127 123.64589 38011 ft 491 kts 219°
2026-05-06 11:37 27.53541 123.60175 38009 ft 490 kts 221°
2026-05-06 11:38 27.48029 123.55671 38011 ft 489 kts 221°
2026-05-06 11:38 27.42520 123.51178 38012 ft 489 kts 221°
2026-05-06 11:39 27.36990 123.46697 38014 ft 489 kts 221°
2026-05-06 11:39 27.31460 123.42233 38012 ft 489 kts 221°
2026-05-06 11:40 27.25924 123.37772 38012 ft 489 kts 221°
2026-05-06 11:40 27.20393 123.33318 38010 ft 489 kts 221°
2026-05-06 11:41 27.14861 123.28869 38011 ft 489 kts 221°
2026-05-06 11:41 27.09324 123.24422 38012 ft 489 kts 221°
2026-05-06 11:42 27.03800 123.19991 38009 ft 488 kts 221°
2026-05-06 11:42 26.98269 123.15559 38002 ft 488 kts 221°
2026-05-06 11:43 26.92741 123.11135 38007 ft 488 kts 220°
2026-05-06 11:43 26.87219 123.06722 38007 ft 487 kts 220°
2026-05-06 11:44 26.78945 123.00119 38008 ft 487 kts 220°
2026-05-06 11:44 26.73419 122.95725 38009 ft 487 kts 220°
2026-05-06 11:45 26.67888 122.91337 38010 ft 487 kts 220°
2026-05-06 11:45 26.62367 122.86962 38006 ft 486 kts 220°
2026-05-06 11:46 26.56853 122.82598 38011 ft 485 kts 220°
2026-05-06 11:46 26.51339 122.78244 38013 ft 485 kts 220°
2026-05-06 11:47 26.45844 122.73887 38009 ft 484 kts 220°
2026-05-06 11:47 26.40359 122.69538 38010 ft 484 kts 220°
2026-05-06 11:48 26.34866 122.65192 38007 ft 484 kts 220°
2026-05-06 11:48 26.29370 122.60853 37986 ft 484 kts 220°
2026-05-06 11:49 26.23878 122.56524 38000 ft 483 kts 220°
2026-05-06 11:49 26.18397 122.52208 38000 ft 483 kts 220°
2026-05-06 11:50 26.12916 122.47894 37997 ft 483 kts 220°
2026-05-06 11:50 26.07428 122.43590 37990 ft 483 kts 220°
2026-05-06 11:51 26.01975 122.39322 37994 ft 482 kts 220°
2026-05-06 11:51 25.96491 122.35033 38005 ft 482 kts 220°
2026-05-06 11:52 25.91004 122.30744 37997 ft 482 kts 220°
2026-05-06 11:52 25.85519 122.26462 37988 ft 482 kts 220°
2026-05-06 11:53 25.80038 122.22188 38005 ft 482 kts 220°
2026-05-06 11:53 25.74552 122.17915 38001 ft 482 kts 220°
2026-05-06 11:54 25.69073 122.13653 37999 ft 482 kts 220°
2026-05-06 11:54 25.63350 122.09733 37988 ft 489 kts 209°
2026-05-06 11:55 25.56737 122.07675 37998 ft 502 kts 190°
2026-05-06 11:55 25.49737 122.07194 38001 ft 506 kts 186°
2026-05-06 11:56 25.42690 122.06980 37999 ft 507 kts 186°
2026-05-06 11:56 25.35643 122.06762 37996 ft 506 kts 186°
2026-05-06 11:57 25.28594 122.06501 37998 ft 507 kts 187°
2026-05-06 11:57 25.21557 122.06222 38002 ft 507 kts 187°
2026-05-06 11:58 25.14505 122.05940 38002 ft 507 kts 187°
2026-05-06 11:58 25.07457 122.05668 38001 ft 507 kts 187°
2026-05-06 11:59 25.00405 122.05391 38002 ft 507 kts 187°
2026-05-06 11:59 24.93351 122.05113 38004 ft 507 kts 187°
2026-05-06 12:00 24.86336 122.04840 38002 ft 507 kts 187°
2026-05-06 12:00 24.79283 122.04566 38006 ft 507 kts 187°
2026-05-06 12:01 24.72230 122.04292 38005 ft 507 kts 187°
2026-05-06 12:01 24.65172 122.04019 38005 ft 507 kts 187°
2026-05-06 12:02 24.58112 122.03745 38008 ft 507 kts 187°
2026-05-06 12:02 24.51056 122.03473 38006 ft 507 kts 187°
2026-05-06 12:03 24.44007 122.03200 38006 ft 507 kts 187°
2026-05-06 12:03 24.36961 122.02852 38005 ft 504 kts 191°
2026-05-06 12:04 24.30181 122.01228 38004 ft 497 kts 200°
2026-05-06 12:04 24.23549 121.99103 38005 ft 496 kts 202°
2026-05-06 12:05 24.16945 121.96906 38003 ft 496 kts 202°
2026-05-06 12:05 24.10332 121.94722 38008 ft 496 kts 201°
2026-05-06 12:06 24.03715 121.92557 38006 ft 497 kts 201°
2026-05-06 12:06 23.97090 121.90397 38004 ft 497 kts 201°
2026-05-06 12:07 23.90468 121.88255 37996 ft 497 kts 201°
2026-05-06 12:07 23.83838 121.86113 37995 ft 497 kts 201°
2026-05-06 12:08 23.77208 121.83979 38002 ft 496 kts 201°
2026-05-06 12:08 23.70591 121.81825 37996 ft 496 kts 201°
2026-05-06 12:09 23.63973 121.79671 37992 ft 496 kts 201°
2026-05-06 12:09 23.57341 121.77538 37964 ft 497 kts 201°
2026-05-06 12:10 23.50700 121.75401 37988 ft 497 kts 201°
2026-05-06 12:10 23.45187 121.73609 37988 ft 497 kts 201°
2026-05-06 12:11 23.38568 121.71466 37988 ft 497 kts 201°
2026-05-06 12:11 23.31926 121.69326 37972 ft 497 kts 201°
2026-05-06 12:12 23.25294 121.67189 37982 ft 497 kts 201°
2026-05-06 12:12 23.18654 121.65053 37979 ft 497 kts 201°
2026-05-06 12:13 23.12019 121.62933 37982 ft 497 kts 201°
2026-05-06 12:13 23.05428 121.60812 37967 ft 497 kts 201°
2026-05-06 12:14 22.98786 121.58674 37972 ft 498 kts 201°
2026-05-06 12:14 22.92146 121.56555 37971 ft 498 kts 201°
2026-05-06 12:15 22.85498 121.54432 37971 ft 498 kts 201°
2026-05-06 12:15 22.78860 121.52315 37963 ft 498 kts 201°
2026-05-06 12:16 22.72211 121.50192 37971 ft 498 kts 201°
2026-05-06 12:16 22.66058 121.47028 37965 ft 485 kts 220°
2026-05-06 12:17 22.60686 121.42628 37966 ft 483 kts 223°
2026-05-06 12:17 22.55430 121.38106 37955 ft 483 kts 223°
2026-05-06 12:18 22.50154 121.33599 37971 ft 484 kts 223°
2026-05-06 12:18 22.44847 121.29117 37971 ft 484 kts 222°
2026-05-06 12:19 22.39547 121.24657 37974 ft 484 kts 223°
2026-05-06 12:19 22.34292 121.20104 37974 ft 483 kts 223°
2026-05-06 12:20 22.29051 121.15554 37979 ft 484 kts 223°
2026-05-06 12:20 22.23788 121.11029 38078 ft 484 kts 223°
2026-05-06 12:21 22.21159 121.08764 38331 ft 483 kts 223°
2026-05-06 12:21 22.18571 121.06531 38630 ft 482 kts 223°
2026-05-06 12:21 22.15956 121.04275 38868 ft 481 kts 223°
2026-05-06 12:21 22.13354 121.02031 39068 ft 480 kts 223°
2026-05-06 12:22 22.10735 120.99774 39245 ft 480 kts 223°
2026-05-06 12:22 22.08097 120.97503 39434 ft 480 kts 223°
2026-05-06 12:22 22.05514 120.95282 39598 ft 480 kts 223°
2026-05-06 12:22 22.02904 120.93047 39775 ft 480 kts 223°
2026-05-06 12:23 22.00294 120.90810 39924 ft 480 kts 223°
2026-05-06 12:23 21.97679 120.88567 39979 ft 480 kts 223°
2026-05-06 12:23 21.92530 120.84014 39985 ft 477 kts 227°
2026-05-06 12:24 21.87719 120.79097 39982 ft 476 kts 228°
2026-05-06 12:24 21.82968 120.74121 39974 ft 476 kts 228°
2026-05-06 12:25 21.78265 120.69183 39980 ft 476 kts 228°
2026-05-06 12:25 21.73519 120.64214 39976 ft 476 kts 228°
2026-05-06 12:26 21.68766 120.59253 39974 ft 476 kts 228°
2026-05-06 12:26 21.64437 120.54739 39973 ft 476 kts 228°
2026-05-06 12:27 21.59681 120.49784 39972 ft 476 kts 228°
2026-05-06 12:27 21.54919 120.44828 39974 ft 476 kts 228°
2026-05-06 12:28 21.50154 120.39874 39973 ft 476 kts 228°
2026-05-06 12:28 21.45389 120.34923 39971 ft 477 kts 228°
2026-05-06 12:29 21.40646 120.30002 39971 ft 477 kts 228°
2026-05-06 12:29 21.35874 120.25054 39966 ft 477 kts 228°
2026-05-06 12:30 21.31102 120.20111 39970 ft 477 kts 228°
2026-05-06 12:30 21.26323 120.15165 39968 ft 477 kts 228°
2026-05-06 12:31 21.21543 120.10223 39968 ft 477 kts 228°
2026-05-06 12:31 21.16761 120.05283 39966 ft 478 kts 227°
2026-05-06 12:32 21.11974 120.00344 39962 ft 478 kts 227°
2026-05-06 12:32 21.07182 119.95403 39963 ft 478 kts 227°
2026-05-06 12:33 21.02382 119.90460 39965 ft 479 kts 227°
2026-05-06 12:33 20.97595 119.85509 39964 ft 478 kts 228°
2026-05-06 12:34 20.92922 119.80453 39963 ft 478 kts 229°
2026-05-06 12:34 20.88299 119.75404 39960 ft 478 kts 229°
2026-05-06 12:35 20.83628 119.70342 39968 ft 479 kts 229°
2026-05-06 12:35 20.78940 119.65291 39961 ft 479 kts 229°
2026-05-06 12:36 20.74248 119.60247 39968 ft 479 kts 229°
2026-05-06 12:36 20.69555 119.55205 39977 ft 479 kts 229°
2026-05-06 12:37 20.64860 119.50165 39959 ft 478 kts 228°
2026-05-06 12:37 20.60161 119.45124 39956 ft 479 kts 228°
2026-05-06 12:38 20.55464 119.40090 39961 ft 479 kts 228°
2026-05-06 12:38 20.50760 119.35054 39961 ft 479 kts 228°
2026-05-06 12:39 20.46057 119.30023 39949 ft 479 kts 228°
2026-05-06 12:39 20.41354 119.24997 39941 ft 479 kts 228°
2026-05-06 12:40 20.36652 119.19976 39956 ft 479 kts 228°
2026-05-06 12:40 20.31936 119.14946 39954 ft 480 kts 228°
2026-05-06 12:41 20.27216 119.09916 39957 ft 480 kts 228°
2026-05-06 12:41 20.22500 119.04894 39956 ft 480 kts 228°
2026-05-06 12:42 20.17773 118.99866 39951 ft 480 kts 228°
2026-05-06 12:42 20.13050 118.94845 39949 ft 481 kts 227°
2026-05-06 12:43 20.08321 118.89823 39947 ft 481 kts 227°
2026-05-06 12:43 20.03579 118.84793 39950 ft 481 kts 227°
2026-05-06 12:44 19.98837 118.79767 39947 ft 481 kts 227°
2026-05-06 12:44 19.94130 118.74782 39951 ft 481 kts 227°
2026-05-06 12:45 19.89354 118.69728 39948 ft 482 kts 227°
2026-05-06 12:46 19.82248 118.62217 39947 ft 482 kts 227°
2026-05-06 12:46 19.77496 118.57201 39945 ft 482 kts 227°
2026-05-06 12:47 19.72742 118.52187 39950 ft 482 kts 227°
2026-05-06 12:47 19.67985 118.47174 39948 ft 482 kts 227°
2026-05-06 12:48 19.63226 118.42163 39945 ft 482 kts 227°
2026-05-06 12:48 19.58468 118.37157 39940 ft 482 kts 227°
2026-05-06 12:49 19.53709 118.32155 39939 ft 482 kts 227°
2026-05-06 12:49 19.48944 118.27152 39941 ft 482 kts 227°
2026-05-06 12:50 19.44182 118.22156 39949 ft 482 kts 227°
2026-05-06 12:50 19.39453 118.17198 39941 ft 482 kts 227°
2026-05-06 12:51 19.34681 118.12200 39945 ft 482 kts 227°
2026-05-06 12:51 19.29913 118.07219 39946 ft 482 kts 227°
2026-05-06 12:52 19.25147 118.02234 39938 ft 482 kts 227°
2026-05-06 12:52 19.20367 117.97235 39935 ft 482 kts 227°
2026-05-06 12:53 19.15602 117.92260 39934 ft 482 kts 226°
2026-05-06 12:53 19.10824 117.87277 39937 ft 482 kts 226°
2026-05-06 12:54 19.06045 117.82298 39936 ft 483 kts 226°
2026-05-06 12:54 19.01261 117.77321 39936 ft 483 kts 226°
2026-05-06 12:55 18.96468 117.72337 39936 ft 483 kts 226°
2026-05-06 12:55 18.91681 117.67360 39939 ft 483 kts 226°
2026-05-06 12:56 18.86896 117.62391 39932 ft 483 kts 226°
2026-05-06 12:56 18.82127 117.57442 39937 ft 483 kts 226°
2026-05-06 12:57 18.77328 117.52468 39935 ft 484 kts 226°
2026-05-06 12:57 18.72529 117.47499 39935 ft 484 kts 226°
2026-05-06 12:58 18.67732 117.42535 39933 ft 484 kts 226°
2026-05-06 12:58 18.62930 117.37570 39929 ft 484 kts 226°
2026-05-06 12:59 18.58116 117.32596 39933 ft 485 kts 226°
2026-05-06 12:59 18.53295 117.27621 39933 ft 485 kts 226°
2026-05-06 13:00 18.49260 117.23459 39934 ft 485 kts 226°
2026-05-06 13:00 18.43661 117.17689 39933 ft 485 kts 226°
2026-05-06 13:01 18.39642 117.13551 39933 ft 485 kts 226°
2026-05-06 13:01 18.34821 117.08590 39929 ft 486 kts 226°
2026-05-06 13:02 18.29986 117.03619 39933 ft 486 kts 226°
2026-05-06 13:02 18.25137 116.98639 39933 ft 486 kts 226°
2026-05-06 13:03 18.20304 116.93678 39927 ft 486 kts 226°
2026-05-06 13:03 18.15462 116.88712 39925 ft 486 kts 226°
2026-05-06 13:04 18.10623 116.83754 39924 ft 486 kts 226°
2026-05-06 13:04 18.05772 116.78787 39924 ft 486 kts 226°
2026-05-06 13:05 18.00933 116.73837 39921 ft 486 kts 226°
2026-05-06 13:05 17.96089 116.68886 39923 ft 486 kts 226°
2026-05-06 13:06 17.91240 116.63933 39927 ft 486 kts 226°
2026-05-06 13:06 17.86391 116.58984 39927 ft 486 kts 226°
2026-05-06 13:07 17.81545 116.54043 39917 ft 486 kts 226°
2026-05-06 13:07 17.76698 116.49105 39917 ft 486 kts 226°
2026-05-06 13:08 17.71842 116.44162 39920 ft 486 kts 226°
2026-05-06 13:08 17.66995 116.39230 39921 ft 486 kts 226°
2026-05-06 13:09 17.62142 116.34298 39934 ft 486 kts 226°
2026-05-06 13:09 17.57281 116.29361 39930 ft 486 kts 226°
2026-05-06 13:10 17.52423 116.24431 39935 ft 485 kts 226°
2026-05-06 13:10 17.47576 116.19516 39934 ft 485 kts 225°
2026-05-06 13:11 17.42725 116.14601 39938 ft 485 kts 225°
2026-05-06 13:11 17.37894 116.09711 39937 ft 485 kts 225°
2026-05-06 13:12 17.33008 116.04767 39932 ft 486 kts 225°
2026-05-06 13:12 17.28175 115.99882 39929 ft 486 kts 225°
2026-05-06 13:13 17.23316 115.94974 39929 ft 487 kts 225°
2026-05-06 13:13 17.18437 115.90050 39929 ft 487 kts 225°
2026-05-06 13:14 17.13559 115.85130 39926 ft 487 kts 225°
2026-05-06 13:14 17.08683 115.80217 39925 ft 487 kts 225°
2026-05-06 13:15 17.03809 115.75309 39926 ft 487 kts 225°
2026-05-06 13:15 16.98920 115.70389 39927 ft 487 kts 225°
2026-05-06 13:16 16.94042 115.65486 39931 ft 487 kts 225°
2026-05-06 13:16 16.89160 115.60581 39931 ft 487 kts 225°
2026-05-06 13:17 16.84280 115.55682 39930 ft 487 kts 225°
2026-05-06 13:17 16.79386 115.50773 39925 ft 487 kts 225°
2026-05-06 13:18 16.74513 115.45888 39924 ft 487 kts 225°
2026-05-06 13:18 16.69613 115.40980 39930 ft 487 kts 225°
2026-05-06 13:19 16.64725 115.36087 39930 ft 487 kts 225°
2026-05-06 13:19 16.59837 115.31199 39926 ft 487 kts 225°
2026-05-06 13:20 16.54947 115.26312 39927 ft 487 kts 225°
2026-05-06 13:20 16.50055 115.21426 39928 ft 487 kts 225°
2026-05-06 13:21 16.45159 115.16540 39925 ft 487 kts 225°
2026-05-06 13:21 16.40265 115.11660 39928 ft 487 kts 225°
2026-05-06 13:22 16.35369 115.06782 39929 ft 487 kts 225°
2026-05-06 13:22 16.30503 115.01936 39927 ft 487 kts 225°
2026-05-06 13:23 16.25606 114.97064 39928 ft 487 kts 225°
2026-05-06 13:23 16.20701 114.92187 39928 ft 487 kts 225°
2026-05-06 13:24 16.15792 114.87309 39927 ft 488 kts 225°
2026-05-06 13:24 16.10888 114.82440 39928 ft 487 kts 225°
2026-05-06 13:25 16.05981 114.77572 39926 ft 487 kts 225°
2026-05-06 13:25 16.01075 114.72708 39929 ft 488 kts 225°
2026-05-06 13:26 15.96160 114.67839 39927 ft 488 kts 225°
2026-05-06 13:26 15.91246 114.62974 39923 ft 487 kts 225°
2026-05-06 13:27 15.86334 114.58114 39929 ft 487 kts 225°
2026-05-06 13:27 15.81428 114.53264 39929 ft 487 kts 225°
2026-05-06 13:28 15.76544 114.48439 39928 ft 487 kts 225°
2026-05-06 13:28 15.71634 114.43592 39928 ft 487 kts 225°
2026-05-06 13:29 15.66714 114.38738 39927 ft 487 kts 225°
2026-05-06 13:29 15.61805 114.33899 39927 ft 487 kts 225°
2026-05-06 13:30 15.56892 114.29059 39925 ft 486 kts 225°
2026-05-06 13:30 15.51987 114.24230 39927 ft 486 kts 225°
2026-05-06 13:31 15.47081 114.19403 39925 ft 486 kts 225°
2026-05-06 13:31 15.42179 114.14584 39925 ft 486 kts 225°
2026-05-06 13:32 15.37276 114.09768 39925 ft 486 kts 225°
2026-05-06 13:32 15.32365 114.04946 39925 ft 486 kts 225°
2026-05-06 13:33 15.27396 114.00202 39923 ft 487 kts 220°
2026-05-06 13:33 15.21972 113.95998 39925 ft 487 kts 217°
2026-05-06 13:34 15.16468 113.91910 39926 ft 487 kts 217°
2026-05-06 13:34 15.10942 113.87836 39922 ft 487 kts 217°
2026-05-06 13:35 15.05430 113.83764 39924 ft 487 kts 217°
2026-05-06 13:35 14.99915 113.79682 39925 ft 487 kts 217°
2026-05-06 13:36 14.94437 113.75628 39924 ft 487 kts 217°
2026-05-06 13:36 14.88928 113.71554 39924 ft 486 kts 217°
2026-05-06 13:37 14.83430 113.67490 39924 ft 486 kts 217°
2026-05-06 13:37 14.77919 113.63421 39925 ft 486 kts 217°
2026-05-06 13:38 14.72411 113.59356 39924 ft 486 kts 217°
2026-05-06 13:38 14.66906 113.55295 39925 ft 486 kts 217°
2026-05-06 13:39 14.61396 113.51233 39924 ft 486 kts 217°
2026-05-06 13:39 14.55887 113.47176 39920 ft 487 kts 217°
2026-05-06 13:40 14.50374 113.43118 39923 ft 486 kts 217°
2026-05-06 13:40 14.44871 113.39068 39922 ft 486 kts 217°
2026-05-06 13:41 14.39379 113.35003 39919 ft 486 kts 217°
2026-05-06 13:41 14.33888 113.30942 39920 ft 486 kts 217°
2026-05-06 13:42 14.28417 113.26903 39922 ft 486 kts 217°
2026-05-06 13:42 14.22917 113.22848 39920 ft 486 kts 217°
2026-05-06 13:43 14.17407 113.18789 39918 ft 486 kts 217°
2026-05-06 13:43 14.11909 113.14740 39917 ft 486 kts 217°
2026-05-06 13:44 14.06408 113.10692 39924 ft 486 kts 217°
2026-05-06 13:44 14.00958 113.06558 39920 ft 485 kts 223°
2026-05-06 13:45 13.96545 113.01386 39919 ft 480 kts 239°
2026-05-06 13:45 13.91757 112.92402 39920 ft 479 kts 244°
2026-05-06 13:46 13.88711 112.86298 39923 ft 479 kts 244°
2026-05-06 13:46 13.86144 112.81192 39921 ft 479 kts 244°
2026-05-06 13:47 13.82561 112.74132 39922 ft 479 kts 244°
2026-05-06 13:47 13.79472 112.68074 39917 ft 478 kts 244°
2026-05-06 13:48 13.76882 112.62997 39919 ft 478 kts 244°
2026-05-06 13:48 13.73815 112.56987 39922 ft 478 kts 244°
2026-05-06 13:49 13.70726 112.50938 39920 ft 478 kts 244°
2026-05-06 13:49 13.67637 112.44891 39914 ft 478 kts 243°
2026-05-06 13:50 13.64544 112.38842 39917 ft 477 kts 243°
2026-05-06 13:50 13.61456 112.32807 39919 ft 477 kts 243°
2026-05-06 13:51 13.58361 112.26763 39917 ft 477 kts 243°
2026-05-06 13:51 13.55267 112.20726 39917 ft 477 kts 243°
2026-05-06 13:52 13.52169 112.14685 39916 ft 478 kts 243°
2026-05-06 13:52 13.49064 112.08635 39917 ft 479 kts 243°
2026-05-06 13:53 13.45955 112.02581 39917 ft 479 kts 243°
2026-05-06 13:53 13.42843 111.96526 39916 ft 479 kts 243°
2026-05-06 13:54 13.39727 111.90468 39914 ft 479 kts 243°
2026-05-06 13:54 13.36610 111.84413 39914 ft 479 kts 243°
2026-05-06 13:55 13.33497 111.78367 39913 ft 479 kts 243°
2026-05-06 13:55 13.30397 111.72353 39917 ft 479 kts 243°
2026-05-06 13:56 13.27278 111.66306 39917 ft 479 kts 243°
2026-05-06 13:56 13.24159 111.60264 39915 ft 479 kts 243°
2026-05-06 13:57 13.21034 111.54215 39914 ft 480 kts 243°
2026-05-06 13:57 13.17907 111.48164 39914 ft 480 kts 243°
2026-05-06 13:58 13.14776 111.42112 39916 ft 480 kts 243°
2026-05-06 13:58 13.11642 111.36058 39914 ft 480 kts 243°
2026-05-06 13:59 13.08504 111.29999 39914 ft 480 kts 243°
2026-05-06 13:59 13.05367 111.23947 39914 ft 480 kts 243°
2026-05-06 14:00 13.02252 111.17943 39916 ft 480 kts 243°
2026-05-06 14:00 12.99112 111.11894 39913 ft 480 kts 243°
2026-05-06 14:01 12.95965 111.05835 39910 ft 481 kts 243°
2026-05-06 14:01 12.92819 110.99782 39911 ft 482 kts 243°
2026-05-06 14:02 12.89662 110.93715 39911 ft 482 kts 243°
2026-05-06 14:02 12.86510 110.87658 39911 ft 482 kts 243°
2026-05-06 14:03 12.83354 110.81601 39911 ft 482 kts 243°
2026-05-06 14:03 12.80215 110.75578 39911 ft 482 kts 243°
2026-05-06 14:04 12.77054 110.69519 39911 ft 482 kts 243°
2026-05-06 14:04 12.73895 110.63466 39911 ft 482 kts 243°
2026-05-06 14:05 12.70731 110.57418 39914 ft 482 kts 243°
2026-05-06 14:05 12.67568 110.51364 39914 ft 482 kts 243°
2026-05-06 14:06 12.64439 110.45380 39910 ft 482 kts 243°
2026-05-06 14:06 12.61785 110.40309 39911 ft 482 kts 243°
2026-05-06 14:07 12.58616 110.34260 39911 ft 482 kts 243°
2026-05-06 14:07 12.55449 110.28219 39911 ft 482 kts 243°
2026-05-06 14:08 12.52279 110.22175 39911 ft 482 kts 243°
2026-05-06 14:08 12.49108 110.16135 39908 ft 482 kts 243°
2026-05-06 14:09 12.45935 110.10092 39911 ft 481 kts 243°
2026-05-06 14:09 12.42766 110.04064 39908 ft 480 kts 243°
2026-05-06 14:10 12.39607 109.98058 39906 ft 480 kts 243°
2026-05-06 14:10 12.36443 109.92047 39906 ft 480 kts 243°
2026-05-06 14:11 12.33284 109.86047 39905 ft 479 kts 243°
2026-05-06 14:11 12.30126 109.80055 39906 ft 478 kts 243°
2026-05-06 14:12 12.26969 109.74068 39906 ft 478 kts 242°
2026-05-06 14:12 12.23837 109.68133 39906 ft 478 kts 242°
2026-05-06 14:13 12.20660 109.62116 39905 ft 478 kts 242°
2026-05-06 14:13 12.17501 109.56137 39903 ft 478 kts 242°
2026-05-06 14:14 12.14365 109.50207 39909 ft 478 kts 242°
2026-05-06 14:14 12.11208 109.44228 39908 ft 478 kts 242°
2026-05-06 14:15 12.08046 109.38242 39913 ft 480 kts 242°
2026-05-06 14:15 12.04873 109.32240 39911 ft 481 kts 242°
2026-05-06 14:16 12.01689 109.26226 39911 ft 481 kts 242°
2026-05-06 14:16 11.98992 109.19991 39914 ft 480 kts 253°
2026-05-06 14:17 11.97118 109.13447 39911 ft 480 kts 255°
2026-05-06 14:17 11.95378 109.06858 39917 ft 481 kts 255°
2026-05-06 14:18 11.93645 109.00262 39925 ft 481 kts 255°
2026-05-06 14:18 11.91888 108.93674 39947 ft 481 kts 254°
2026-05-06 14:19 11.89973 108.87127 39950 ft 481 kts 253°
2026-05-06 14:19 11.88037 108.80592 39967 ft 481 kts 253°
2026-05-06 14:20 11.86179 108.74029 39968 ft 481 kts 253°
2026-05-06 14:20 11.84335 108.67460 39979 ft 482 kts 253°
2026-05-06 14:21 11.82498 108.60924 39967 ft 482 kts 253°
2026-05-06 14:21 11.80666 108.54345 39973 ft 482 kts 253°
2026-05-06 14:22 11.79759 108.51083 39649 ft 472 kts 253°
2026-05-06 14:22 11.78867 108.47882 38674 ft 468 kts 253°
2026-05-06 14:22 11.77970 108.44667 37131 ft 474 kts 254°
2026-05-06 14:22 11.77058 108.41409 35628 ft 481 kts 253°
2026-05-06 14:23 11.76088 108.38140 34503 ft 479 kts 250°
2026-05-06 14:23 11.74748 108.35024 33667 ft 482 kts 242°
2026-05-06 14:23 11.73000 108.32097 32777 ft 485 kts 236°
2026-05-06 14:23 11.71114 108.29235 31888 ft 488 kts 234°
2026-05-06 14:24 11.69156 108.26386 30985 ft 492 kts 233°
2026-05-06 14:24 11.67167 108.23549 30274 ft 491 kts 233°
2026-05-06 14:24 11.65178 108.20726 29625 ft 488 kts 233°
2026-05-06 14:24 11.63211 108.17930 28981 ft 483 kts 233°
2026-05-06 14:25 11.61265 108.15153 28353 ft 479 kts 233°
2026-05-06 14:25 11.59347 108.12411 27722 ft 475 kts 233°
2026-05-06 14:25 11.57434 108.09668 27111 ft 471 kts 233°
2026-05-06 14:25 11.55542 108.06949 26514 ft 468 kts 233°
2026-05-06 14:26 11.53670 108.04261 25905 ft 464 kts 233°
2026-05-06 14:26 11.51808 108.01587 25316 ft 462 kts 233°
2026-05-06 14:26 11.49953 107.98925 24705 ft 459 kts 233°
2026-05-06 14:26 11.48110 107.96280 24100 ft 457 kts 233°
2026-05-06 14:27 11.46271 107.93642 23478 ft 456 kts 233°
2026-05-06 14:27 11.44463 107.91049 22801 ft 453 kts 233°
2026-05-06 14:27 11.42622 107.88410 22156 ft 448 kts 233°
2026-05-06 14:27 11.40854 107.85876 21558 ft 443 kts 233°
2026-05-06 14:28 11.39047 107.83287 20944 ft 439 kts 233°
2026-05-06 14:28 11.37311 107.80800 20345 ft 435 kts 233°
2026-05-06 14:28 11.35562 107.78295 19722 ft 432 kts 233°
2026-05-06 14:28 11.33824 107.75807 19090 ft 429 kts 234°
2026-05-06 14:29 11.32103 107.73345 18462 ft 426 kts 234°
2026-05-06 14:29 11.30387 107.70889 17794 ft 424 kts 234°
2026-05-06 14:29 11.28684 107.68453 17150 ft 420 kts 234°
2026-05-06 14:29 11.27002 107.66045 16529 ft 415 kts 234°
2026-05-06 14:30 11.25338 107.63665 15921 ft 411 kts 234°
2026-05-06 14:30 11.23668 107.61323 15295 ft 407 kts 231°
2026-05-06 14:30 11.21773 107.59206 14687 ft 403 kts 224°
2026-05-06 14:30 11.19783 107.57212 14081 ft 400 kts 224°
2026-05-06 14:31 11.17796 107.55243 13451 ft 397 kts 224°
2026-05-06 14:31 11.15834 107.53296 12825 ft 393 kts 224°
2026-05-06 14:31 11.13899 107.51373 12491 ft 381 kts 224°
2026-05-06 14:31 11.12045 107.49528 12360 ft 364 kts 224°
2026-05-06 14:32 11.10277 107.47767 12236 ft 348 kts 224°
2026-05-06 14:32 11.08590 107.46088 12093 ft 333 kts 224°
2026-05-06 14:32 11.06966 107.44470 11985 ft 319 kts 224°
2026-05-06 14:32 11.05411 107.42922 11817 ft 308 kts 223°
2026-05-06 14:33 11.03884 107.41402 11462 ft 307 kts 223°
2026-05-06 14:33 11.02378 107.39865 11099 ft 306 kts 227°
2026-05-06 14:33 11.01276 107.38036 10781 ft 304 kts 251°
2026-05-06 14:33 11.00726 107.35943 10512 ft 309 kts 258°
2026-05-06 14:34 11.00286 107.33799 10242 ft 309 kts 258°
2026-05-06 14:34 10.99852 107.31659 9974 ft 308 kts 258°
2026-05-06 14:34 10.99413 107.29525 9701 ft 307 kts 258°
2026-05-06 14:34 10.99121 107.28119 9507 ft 307 kts 258°
2026-05-06 14:35 10.98527 107.25286 9147 ft 305 kts 258°
2026-05-06 14:35 10.98234 107.23890 8990 ft 304 kts 258°
2026-05-06 14:35 10.97788 107.21786 8775 ft 304 kts 258°
2026-05-06 14:35 10.97200 107.19004 8460 ft 295 kts 258°
2026-05-06 14:36 10.96920 107.17673 8349 ft 287 kts 258°
2026-05-06 14:36 10.96508 107.15721 8188 ft 277 kts 258°
2026-05-06 14:36 10.96113 107.13856 7991 ft 261 kts 258°
2026-05-06 14:36 10.95742 107.12100 7729 ft 248 kts 258°
2026-05-06 14:37 10.95385 107.10412 7369 ft 241 kts 258°
2026-05-06 14:37 10.95037 107.08773 7036 ft 232 kts 258°
2026-05-06 14:37 10.94709 107.07225 6889 ft 215 kts 258°
2026-05-06 14:37 10.94404 107.05782 6631 ft 205 kts 258°
2026-05-06 14:38 10.94106 107.04376 6272 ft 201 kts 258°
2026-05-06 14:38 10.93812 107.02987 5965 ft 200 kts 258°
2026-05-06 14:38 10.93520 107.01611 5747 ft 198 kts 258°
2026-05-06 14:38 10.93231 107.00249 5539 ft 197 kts 258°
2026-05-06 14:39 10.92944 106.98891 5404 ft 196 kts 258°
2026-05-06 14:39 10.92657 106.97539 5300 ft 195 kts 258°
2026-05-06 14:39 10.92370 106.96190 5202 ft 195 kts 258°
2026-05-06 14:39 10.92085 106.94845 5105 ft 194 kts 258°
2026-05-06 14:40 10.91801 106.93508 4888 ft 193 kts 258°
2026-05-06 14:40 10.91516 106.92166 4585 ft 195 kts 258°
2026-05-06 14:40 10.91251 106.90806 4196 ft 198 kts 264°
2026-05-06 14:40 10.91042 106.89420 3880 ft 199 kts 256°
2026-05-06 14:41 10.90632 106.88113 3781 ft 188 kts 249°
2026-05-06 14:41 10.90184 106.86867 3764 ft 187 kts 250°
2026-05-06 14:41 10.89732 106.85622 3758 ft 187 kts 249°
2026-05-06 14:41 10.89271 106.84386 3630 ft 187 kts 249°
2026-05-06 14:42 10.88810 106.83154 3387 ft 186 kts 249°
2026-05-06 14:42 10.88357 106.81945 3150 ft 183 kts 248°
2026-05-06 14:42 10.87901 106.80729 2876 ft 180 kts 248°
2026-05-06 14:42 10.87458 106.79550 2633 ft 176 kts 248°
2026-05-06 14:43 10.87033 106.78419 2401 ft 170 kts 247°
2026-05-06 14:43 10.86613 106.77299 2214 ft 166 kts 247°
2026-05-06 14:43 10.86211 106.76229 1979 ft 158 kts 246°
2026-05-06 14:43 10.85830 106.75213 1775 ft 149 kts 246°
2026-05-06 14:44 10.85464 106.74241 1607 ft 147 kts 246°
2026-05-06 14:44 10.85098 106.73268 1396 ft 147 kts 246°
2026-05-06 14:44 10.84733 106.72295 1223 ft 147 kts 247°
2026-05-06 14:45 10.84026 106.70351 859 ft 148 kts 247°
2026-05-06 14:45 10.83651 106.69385 693 ft 145 kts 245°
2026-05-06 14:45 10.83285 106.68432 510 ft 143 kts 248°
2026-05-06 14:45 10.82937 106.67493 320 ft 142 kts 248°
2026-05-06 14:46 10.82577 106.66561 125 ft 141 kts 247°
2026-05-06 14:46 10.82229 106.65638 48 ft 133 kts 248°
2026-05-06 14:46 10.81960 106.64929 42 ft 74 kts 249°
2026-05-06 14:46 10.81831 106.64588 43 ft 47 kts 249°
2026-05-06 14:47 10.81731 106.64414 42 ft 21 kts 227°
2026-05-06 14:47 10.81632 106.64324 41 ft 14 kts 218°
2026-05-06 14:47 10.81548 106.64294 42 ft 11 kts 173°
2026-05-06 14:47 10.81503 106.64308 43 ft 5 kts 160°
2026-05-06 14:48 10.81502 106.64308 43 ft 0 kts 160°
2026-05-06 14:48 10.81478 106.64317 43 ft 8 kts 160°
2026-05-06 14:48 10.81418 106.64340 44 ft 10 kts 159°
2026-05-06 14:49 10.81347 106.64367 43 ft 6 kts 159°
2026-05-06 14:49 10.81297 106.64386 43 ft 10 kts 159°
2026-05-06 14:49 10.81251 106.64440 43 ft 10 kts 95°
2026-05-06 14:49 10.81270 106.64510 45 ft 10 kts 69°
2026-05-06 14:50 10.81298 106.64583 46 ft 12 kts 69°
2026-05-06 14:50 10.81331 106.64670 44 ft 14 kts 69°
2026-05-06 14:50 10.81364 106.64756 44 ft 14 kts 69°
2026-05-06 14:50 10.81397 106.64845 45 ft 13 kts 69°
2026-05-06 14:51 10.81431 106.64935 47 ft 15 kts 69°
2026-05-06 14:51 10.81469 106.65034 45 ft 14 kts 69°
2026-05-06 14:51 10.81507 106.65136 44 ft 14 kts 69°
2026-05-06 14:51 10.81536 106.65212 44 ft 9 kts 69°
2026-05-06 14:52 10.81564 106.65287 43 ft 13 kts 69°
2026-05-06 14:52 10.81603 106.65390 41 ft 15 kts 69°
2026-05-06 14:52 10.81642 106.65492 41 ft 15 kts 69°
2026-05-06 14:52 10.81673 106.65576 42 ft 12 kts 69°
2026-05-06 14:53 10.81706 106.65662 42 ft 14 kts 69°
2026-05-06 14:53 10.81717 106.65768 40 ft 17 kts 114°
2026-05-06 14:53 10.81683 106.65849 40 ft 12 kts 104°
2026-05-06 14:53 10.81692 106.65926 43 ft 11 kts 71°
2026-05-06 14:54 10.81722 106.66006 43 ft 14 kts 69°
2026-05-06 14:54 10.81756 106.66098 43 ft 11 kts 69°
2026-05-06 14:54 10.81787 106.66180 43 ft 14 kts 69°
2026-05-06 14:54 10.81825 106.66280 43 ft 16 kts 69°
2026-05-06 14:55 10.81836 106.66308 43 ft 5 kts 69°
2026-05-06 14:55 10.81854 106.66356 43 ft 7 kts 69°
2026-05-06 14:55 10.81871 106.66400 43 ft 7 kts 69°
2026-05-06 14:55 10.81881 106.66457 43 ft 8 kts 104°
2026-05-06 14:56 10.81839 106.66489 43 ft 6 kts 158°
2026-05-06 14:56 10.81816 106.66498 43 ft 2 kts 158°
2026-05-06 14:56 10.81809 106.66501 43 ft 0 kts 158°